Regional Weather Roundup
Issued by NWS San Diego, CA

Home | Current Version | Previous Version | Text Only | Print | Product List | Glossary On
Versions: 1 2 3 4 5 6 7 8 9 10 11 12 13 14 15 16 17 18 19 20 21 22 23 24 25 26 27 28 29 30 31 32 33 34 35 36 37 38 39 40 41 42 43 44 45 46 47 48 49 50
000
ASUS46 KSGX 221811
RWRSGX

SAN DIEGO HOURLY WEATHER ROUNDUP
NATIONAL WEATHER SERVICE SAN DIEGO CA
1100 AM PDT MON MAY 22 2017

NOTE: "FAIR" INDICATES FEW OR NO CLOUDS BELOW 12,000 FEET WITH NO
SIGNIFICANT WEATHER AND/OR OBSTRUCTIONS TO VISIBILITY.

CAZ042-043-060-061-PZZ750-775-221900-

GREATER SAN DIEGO AREA

CITY           SKY/WX    TMP DP  RH WIND       PRES   REMARKS
SAN DIEGO AP   MOSUNNY   69  59  70 W9        29.99S
NATIONAL CITY    N/A     68  61  78 SW9       29.98R
CHULA VISTA      N/A     68  61  78 W3        29.90S
IMPERIAL BEACH MOSUNNY   65  57  75 W8        29.99R
BROWN FIELD    SUNNY     72  59  63 W8        29.97S
MIRAMAR MCAS   MOSUNNY   80  57  45 VRB6      29.97S
MONTGOMERY FLD SUNNY     73  57  57 W8        29.98S

$$

NORTH SAN DIEGO COUNTY

CITY           SKY/WX    TMP DP  RH WIND       PRES   REMARKS
CAMP PENDLETON MOSUNNY   73  59  61 VRB5      29.97F
OCEANSIDE AP   SUNNY     69  60  73 MISG      29.97S
OCEANSIDE HBR    N/A     61  59  93 SW3       30.01R
VISTA            N/A     71  62  74 W2        29.95S
CARLSBAD       SUNNY     66  59  78 W9        29.97S
DEL MAR          N/A     65  60  82 CALM      30.00S
LA JOLLA SCRIP   N/A     61  59  93 SW3       29.98S
FALLBROOK        N/A     74  64  70 S1          N/A
ESCONDIDO        N/A     82  58  44 SW3       29.96S
SAN MARCOS       N/A     77  61  58 CALM      29.98S
POWAY            N/A     80  60  50 CALM      29.97S

$$

EAST SAN DIEGO COUNTY

CITY           SKY/WX    TMP DP  RH WIND       PRES   REMARKS
RAMONA         SUNNY     82  55  39 NW12      29.99R
SANTEE LAKES     N/A     79  60  52 SE2       29.94F
LA MESA          N/A     75  59  57 W1        29.90R
JAMUL            N/A     78  62  56 CALM      29.95S
DESCANSO N       N/A     79  43  27 CALM      29.90S
CAMPO            N/A     86  40  19 S8        29.99F

$$

ORANGE COUNTY AND THE LOS ANGELES BASIN

CITY           SKY/WX    TMP DP  RH WIND       PRES   REMARKS
JOHN WAYNE AP  MOSUNNY   71  57  61 VRB3      29.98S
LAKE FOREST FR   N/A     76  55  46 W3        29.85F
HUNTINGTON BCH   N/A     66  61  83 SW3       30.00S
LOS ALAMITOS   SUNNY     70  58  67 CALM      29.98F
FULLERTON      MOSUNNY   74  59  59 CALM      29.96F
LONG BEACH     SUNNY     72  56  57 VRB3      29.98S
L.A. AP        MOSUNNY   68  59  73 VRB3      29.98F
L.A. DOWNTOWN  SUNNY     75  58  55 CALM      29.96F

$$

THE INLAND EMPIRE

CITY           SKY/WX    TMP DP  RH WIND       PRES   REMARKS
CORONA         SUNNY     79  58  48 NW6       29.97F
CHINO          MOSUNNY   85  52  32 VRB5      29.97F
ONTARIO        SUNNY     83  48  29 SW6       29.97F
SAN BERNARDINO SUNNY     88  36  15 SW6       29.98S
RIVERSIDE AP   SUNNY     83  45  26 VRB3      29.97S
MORENO VALLEY    N/A     87  47  25 SE3       28.10F
MARCH ARB      SUNNY     87  41  20 NW9       29.98F
HORSETHIEF CYN   N/A     83  41  22 NE9       29.94S
PERRIS           N/A     86  42  21 W6        29.98F
HEMET EAST       N/A     84  34  16 SW3       29.97S
FRENCH VALLEY  FAIR      82  43  24 SW6       29.98S
TEMECULA         N/A     83  52  34 CALM      30.02F

$$

SAN BERNARDINO AND RIVERSIDE COUNTY MOUNTAINS

CITY           SKY/WX    TMP DP  RH WIND       PRES   REMARKS
BIG BEAR AP    SUNNY     70  28  21 NE8       30.28S
ANGELUS OAKS     N/A     74  42  32 CALM      29.86S
PINE COVE        N/A     73  37  27 NW2       29.92S

$$

SOUTHERN DESERT INCLUDING THE COACHELLA VALLEY

CITY           SKY/WX    TMP DP  RH WIND       PRES   REMARKS
PALM SPRINGS   SUNNY    101  33   9 CALM      29.88S HX  95
PALM DESERT      N/A    102  42  13 CALM      29.07F HX  97
THERMAL        SUNNY    101  39  12 SE7       29.82F HX  96
BLYTHE         SUNNY     98  33  10 NE8       29.87F
IMPERIAL AP    SUNNY     98  38  12 CALM      29.84S
EL CENTRO NAS  SUNNY    100  26   7 NW3       29.86S
YUMA AZ        SUNNY     96  39  13 VRB3      29.86
MEXICALI       SUNNY     97  30   9 W6        29.86S

$$

UPPER DESERT

CITY           SKY/WX    TMP DP  RH WIND       PRES   REMARKS
VICTORVILLE AP SUNNY     86  30  13 CALM      30.06S
HESPERIA         N/A     84  35  17 N1        30.04S
PALMDALE       SUNNY     87  39  18 NE5       30.05S
LANCASTER      SUNNY     88  37  16 MISG      30.03F
EDWARDS AFB    PTSUNNY   83  37  19 NE6       30.01F
DAGGETT        SUNNY     89  33  13 NE6       30.01S
29 PALMS N     MOSUNNY   92  27   9 N5        30.06S
NEEDLES        SUNNY     98  37  12 N17       29.93S

$$

REGIONAL REPORTS

CITY           SKY/WX    TMP DP  RH WIND       PRES   REMARKS
SANTA BARBARA  PTSUNNY   58  55  90 S7        29.99S
SANDBERG       SUNNY     86  30  13 E12G17    30.17S
LAS VEGAS NV   MOSUNNY   87  33  14 NE13G22   30.06F
PHOENIX AZ     MOSUNNY   94  30  10 VRB5      29.89S
TIJUANA        SUNNY     73  54  49 NW8       29.99S
ENSENADA NW      N/A     66  32  28 W3        29.94S

$$

OFFSHORE ISLANDS

CITY           SKY/WX    TMP DP  RH WIND       PRES   REMARKS
CATALINA ARPT  SUNNY     75  49  39 SW7       30.02R
SAN CLEMENTE I CLOUDY    60  54  80 SW8       30.01S
SAN NICOLAS IS FAIR      63  52  67 NW13      29.99S HAZE

$$

MARINE AND OFFSHORE BUOY REPORTS

STATION/POSITION SKY/WX   TEMP    WIND        PRES    VSBY  SWELL
                          AIR SEA DIR/SP/G                  HT/PER/DIR
                          (F)     (DEG/KT/KT) (MB)    (MI)  (FT/S/D)
TANNER BANKS               55 60  300/ 12/ 16 1016.1          5/180/16
S CLEMENTE BASIN           56 62  280/  6/  8 1015.6          3/210/16
SAN NICOLAS IS.               60                N/A           3/190/15
SO. S. ROSA ISLA           51 55  300/ 14/ 17 1015.7          5/190/16
W. S. BARBARA CH           51 57  330/ 14/ 17 1015.7          3/310/ 9
M. S. BARBARA CH                                N/A           3/250/ 6
S. MONICA BASIN            59 63  160/  2/  4 1015.4R         3/170/16
S PEDRO CHANNEL               64                N/A           2/180/17
CMP PENDLETON NS              64                N/A           2/210/17
OCEANSIDE OFFSHR              64                N/A           2/200/17
TORREY PINES OTR              65                N/A           2/200/17
SAN DIEGO BAY                 69              1015.5R
POINT LOMA SOUTH              66                N/A           3/180/17

$$




USA.gov is the U.S. government's official web portal to all federal, state and local government web resources and services.